EN

Hourly Weather Brychy

Today, 16 April, Friday

Time Temperature Precipitation Wind Pressure Humidity
00:00 +3°C° 0.2 mm 4 mps 752 mmHg 95%
01:00 +3°C° 0.2 mm 4 mps 752 mmHg 95%
02:00 +2°C° 0 mm 5 mps 751 mmHg 95%
03:00 +2°C° 0 mm 5 mps 751 mmHg 95%
04:00 +2°C° 0 mm 5 mps 751 mmHg 95%
05:00 +2°C° 0.1 mm 5 mps 751 mmHg 95%
06:00 +2°C° 0.1 mm 5 mps 751 mmHg 95%
07:00 +3°C° 0.1 mm 5 mps 751 mmHg 95%
08:00 +3°C° 0.3 mm 5 mps 751 mmHg 94%
09:00 +3°C° 0.3 mm 5 mps 751 mmHg 94%
10:00 +3°C° 0.3 mm 5 mps 751 mmHg 94%
11:00 +5°C° 0.9 mm 5 mps 751 mmHg 94%
12:00 +5°C° 0.9 mm 4 mps 751 mmHg 93%
13:00 +5°C° 0.9 mm 4 mps 751 mmHg 93%
14:00 +6°C° 0 mm 4 mps 751 mmHg 91%
15:00 +6°C° 0 mm 4 mps 751 mmHg 90%
16:00 +7°C° 0 mm 4 mps 751 mmHg 88%
17:00 +7°C° 0 mm 4 mps 751 mmHg 90%
18:00 +7°C° 0 mm 4 mps 751 mmHg 91%
19:00 +6°C° 0 mm 4 mps 752 mmHg 93%
20:00 +6°C° 0 mm 4 mps 752 mmHg 94%
21:00 +6°C° 0 mm 4 mps 752 mmHg 94%
22:00 +6°C° 0 mm 4 mps 752 mmHg 95%
23:00 +6°C° 0 mm 5 mps 752 mmHg 95%

Tomorrow, 17 April, Saturday

Time Temperature Precipitation Wind Pressure Humidity
00:00 +6°C° 0 mm 5 mps 752 mmHg 95%
01:00 +6°C° 0 mm 5 mps 752 mmHg 96%
02:00 +6°C° 0 mm 5 mps 752 mmHg 94%
03:00 +6°C° 0 mm 5 mps 752 mmHg 93%
04:00 +6°C° 0 mm 5 mps 752 mmHg 92%
05:00 +6°C° 0 mm 4 mps 753 mmHg 91%
06:00 +7°C° 0 mm 4 mps 753 mmHg 90%
07:00 +7°C° 0 mm 4 mps 753 mmHg 89%
08:00 +8°C° 0 mm 4 mps 753 mmHg 86%
09:00 +10°C° 0 mm 4 mps 754 mmHg 82%
10:00 +10°C° 0 mm 4 mps 754 mmHg 78%
11:00 +11°C° 0.1 mm 4 mps 754 mmHg 73%
12:00 +12°C° 0.1 mm 4 mps 754 mmHg 67%
13:00 +13°C° 0.1 mm 3 mps 754 mmHg 61%
14:00 +13°C° 0.2 mm 3 mps 754 mmHg 63%
15:00 +13°C° 0.2 mm 3 mps 754 mmHg 65%
16:00 +13°C° 0.2 mm 3 mps 754 mmHg 67%
17:00 +11°C° 0.1 mm 3 mps 754 mmHg 73%
18:00 +10°C° 0.1 mm 2 mps 755 mmHg 79%
19:00 +9°C° 0.1 mm 2 mps 755 mmHg 85%
20:00 +8°C° 0 mm 2 mps 755 mmHg 88%
21:00 +8°C° 0 mm 2 mps 755 mmHg 90%
22:00 +7°C° 0 mm 2 mps 755 mmHg 93%
23:00 +7°C° 0 mm 2 mps 755 mmHg 94%

Day after tomorrow, 18 April, Sunday

Time Temperature Precipitation Wind Pressure Humidity
00:00 +7°C° 0 mm 3 mps 755 mmHg 95%
01:00 +5°C° 0 mm 3 mps 755 mmHg 96%
02:00 +5°C° 0 mm 3 mps 755 mmHg 96%
03:00 +5°C° 0 mm 3 mps 755 mmHg 96%
04:00 +5°C° 0 mm 3 mps 755 mmHg 96%
05:00 +7°C° 0 mm 3 mps 755 mmHg 92%
06:00 +8°C° 0 mm 3 mps 754 mmHg 88%
07:00 +8°C° 0 mm 4 mps 754 mmHg 84%
08:00 +11°C° 0 mm 4 mps 754 mmHg 78%
09:00 +13°C° 0 mm 4 mps 754 mmHg 71%
10:00 +14°C° 0 mm 5 mps 754 mmHg 64%
11:00 +15°C° 0 mm 5 mps 754 mmHg 62%
12:00 +15°C° 0 mm 5 mps 754 mmHg 59%
13:00 +15°C° 0 mm 5 mps 754 mmHg 57%
14:00 +15°C° 0.2 mm 5 mps 754 mmHg 59%
15:00 +14°C° 0.2 mm 5 mps 754 mmHg 62%
16:00 +14°C° 0.2 mm 5 mps 754 mmHg 65%
17:00 +13°C° 0.1 mm 4 mps 754 mmHg 69%
18:00 +12°C° 0.1 mm 4 mps 754 mmHg 74%
19:00 +11°C° 0.1 mm 3 mps 755 mmHg 78%
20:00 +10°C° 0 mm 3 mps 755 mmHg 79%
21:00 +10°C° 0 mm 3 mps 755 mmHg 81%
22:00 +9°C° 0 mm 2 mps 755 mmHg 82%
23:00 +9°C° 0 mm 2 mps 755 mmHg 82%

19 April, Monday

Time Temperature Precipitation Wind Pressure Humidity
00:00 +9°C° 0 mm 2 mps 755 mmHg 82%
01:00 +9°C° 0 mm 2 mps 755 mmHg 83%
02:00 +9°C° 0 mm 2 mps 754 mmHg 82%
03:00 +8°C° 0 mm 2 mps 754 mmHg 81%
04:00 +8°C° 0 mm 2 mps 754 mmHg 81%
05:00 +8°C° 0 mm 3 mps 754 mmHg 81%
06:00 +8°C° 0 mm 3 mps 754 mmHg 80%
07:00 +7°C° 0 mm 4 mps 754 mmHg 80%
08:00 +8°C° 0 mm 5 mps 754 mmHg 73%
09:00 +9°C° 0 mm 5 mps 754 mmHg 65%
10:00 +12°C° 0 mm 5 mps 754 mmHg 58%
11:00 +10°C° 0.1 mm 5 mps 753 mmHg 60%
12:00 +10°C° 0.1 mm 5 mps 753 mmHg 62%
13:00 +10°C° 0.1 mm 5 mps 753 mmHg 65%
14:00 +10°C° 0 mm 5 mps 752 mmHg 65%
15:00 +9°C° 0 mm 5 mps 752 mmHg 65%
16:00 +9°C° 0 mm 5 mps 752 mmHg 65%
17:00 +8°C° 0 mm 4 mps 752 mmHg 68%
18:00 +8°C° 0 mm 4 mps 752 mmHg 72%
19:00 +8°C° 0 mm 3 mps 751 mmHg 76%
20:00 +7°C° 0 mm 3 mps 751 mmHg 80%
21:00 +5°C° 0 mm 3 mps 751 mmHg 84%
22:00 +4°C° 0 mm 3 mps 751 mmHg 88%
23:00 +5°C° 0 mm 3 mps 750 mmHg 88%

20 April, Tuesday

Time Temperature Precipitation Wind Pressure Humidity
00:00 +5°C° 0 mm 3 mps 750 mmHg 87%
01:00 +6°C° 0 mm 4 mps 749 mmHg 87%
02:00 +5°C° 0.1 mm 4 mps 749 mmHg 87%
03:00 +5°C° 0.1 mm 4 mps 749 mmHg 88%
04:00 +5°C° 0.1 mm 5 mps 748 mmHg 89%
05:00 +5°C° 0.1 mm 5 mps 748 mmHg 88%
06:00 +6°C° 0.1 mm 5 mps 748 mmHg 88%
07:00 +6°C° 0.1 mm 5 mps 748 mmHg 88%
08:00 +6°C° 0.1 mm 5 mps 747 mmHg 86%
09:00 +6°C° 0.1 mm 5 mps 747 mmHg 85%
10:00 +7°C° 0.1 mm 5 mps 747 mmHg 83%
11:00 +7°C° 0.1 mm 5 mps 747 mmHg 80%
12:00 +8°C° 0.1 mm 5 mps 746 mmHg 76%
13:00 +8°C° 0.1 mm 6 mps 746 mmHg 73%
14:00 +8°C° 0.1 mm 6 mps 745 mmHg 74%
15:00 +8°C° 0.1 mm 6 mps 745 mmHg 74%
16:00 +7°C° 0.1 mm 6 mps 745 mmHg 75%
17:00 +7°C° 0 mm 6 mps 744 mmHg 76%
18:00 +5°C° 0 mm 6 mps 744 mmHg 78%
19:00 +5°C° 0 mm 6 mps 744 mmHg 79%
20:00 +5°C° 0 mm 6 mps 743 mmHg 79%
21:00 +4°C° 0 mm 7 mps 743 mmHg 80%
22:00 +4°C° 0 mm 7 mps 742 mmHg 80%
23:00 +4°C° 0.1 mm 7 mps 742 mmHg 81%

21 April, Wednesday

Time Temperature Precipitation Wind Pressure Humidity
00:00 +4°C° 0.1 mm 7 mps 741 mmHg 81%
01:00 +4°C° 0.1 mm 7 mps 741 mmHg 81%
02:00 +4°C° 0.2 mm 7 mps 741 mmHg 83%
03:00 +4°C° 0.2 mm 7 mps 741 mmHg 84%
04:00 +3°C° 0.2 mm 7 mps 741 mmHg 86%
05:00 +3°C° 0.2 mm 7 mps 741 mmHg 86%
06:00 +3°C° 0.2 mm 7 mps 741 mmHg 86%
07:00 +4°C° 0.2 mm 8 mps 741 mmHg 86%
08:00 +4°C° 0 mm 8 mps 741 mmHg 83%
09:00 +5°C° 0 mm 8 mps 742 mmHg 79%
10:00 +5°C° 0 mm 8 mps 742 mmHg 75%
11:00 +6°C° 0.1 mm 8 mps 743 mmHg 74%
12:00 +6°C° 0.1 mm 7 mps 743 mmHg 73%
13:00 +6°C° 0.1 mm 7 mps 744 mmHg 72%
14:00 +6°C° 0.1 mm 7 mps 744 mmHg 71%
15:00 +8°C° 0.1 mm 7 mps 744 mmHg 69%
16:00 +8°C° 0.1 mm 7 mps 745 mmHg 67%
17:00 +7°C° 0 mm 6 mps 745 mmHg 69%
18:00 +6°C° 0 mm 4 mps 746 mmHg 71%
19:00 +5°C° 0 mm 3 mps 746 mmHg 73%
20:00 +5°C° 0 mm 3 mps 746 mmHg 77%
21:00 +4°C° 0 mm 3 mps 747 mmHg 81%
22:00 +4°C° 0 mm 3 mps 747 mmHg 85%
23:00 +3°C° 0 mm 3 mps 747 mmHg 86%
Show more

We Need Your Consent

Meteoprog and our Service Providers may store and access personal data such as cookies, device identifiers or other similar technologies on your device and process such data to personalise content and ads, as well as provide social media features and to analyse the traffic.

  • Store and/or access information on your device

    Cookies, device identifiers or other information can be stored or accessed on your device for the purposes indicated above.

  • Personalised ads and content, ad and content measurement, audience insights, and products development

    Ads and content can be personalised based on a profile. More data can be added to better personalise ads and content. Ad and content performance can be measured. Insights about the audience who saw the ads and content can be derived. Such data can be used to develop or improve user’s experience, systems and software.

By clicking ‘I Agree’ you will allow the use of indicated cookies, device identifiers, web beacons or other similar technologies. Your settings can be changed in the browser on your device.

For certain purposes, legitimate interests may be relied on, rather than consent. You can read more about this in our Privacy and Cookie Policy.